Time,TemperatureF,DewpointF,PressureIn,WindDirection,WindDirectionDegrees,WindSpeedMPH,WindSpeedGustMPH,Humidity,HourlyPrecipIn,Conditions,Clouds,dailyrainin,SoftwareType,DateUTC
2013-07-27 00:01:00,64.4,64.0,30.04,WSW,247,0.0,0.0,100,0.06,,,0.00,Rainwise IP-100,2013-07-27 04:01:00,
2013-07-27 00:06:00,64.4,64.0,30.04,WSW,247,0.0,0.0,100,0.06,,,0.00,Rainwise IP-100,2013-07-27 04:06:00,
2013-07-27 00:11:00,64.4,64.0,30.04,SW,225,0.0,2.0,100,0.00,,,0.00,Rainwise IP-100,2013-07-27 04:11:00,
2013-07-27 00:16:00,64.4,64.0,30.05,SW,225,0.0,1.0,100,0.00,,,0.00,Rainwise IP-100,2013-07-27 04:16:00,
2013-07-27 00:21:00,64.3,64.0,30.05,SSW,202,1.0,2.0,100,0.00,,,0.00,Rainwise IP-100,2013-07-27 04:21:00,
2013-07-27 00:26:00,64.3,64.0,30.04,WSW,247,2.0,2.0,100,0.00,,,0.00,Rainwise IP-100,2013-07-27 04:26:00,
2013-07-27 00:31:00,64.2,64.0,30.04,WSW,247,3.0,3.0,100,0.00,,,0.00,Rainwise IP-100,2013-07-27 04:31:00,
2013-07-27 00:36:00,64.2,64.0,30.05,SSW,202,0.0,3.0,100,0.00,,,0.00,Rainwise IP-100,2013-07-27 04:36:00,
2013-07-27 00:41:00,64.5,64.0,30.05,WSW,247,1.0,5.0,100,0.00,,,0.00,Rainwise IP-100,2013-07-27 04:41:00,
2013-07-27 00:46:00,64.8,64.0,30.05,WSW,247,4.0,7.0,100,0.00,,,0.00,Rainwise IP-100,2013-07-27 04:46:00,
2013-07-27 00:51:00,65.2,65.0,30.04,WNW,292,2.0,4.0,100,0.00,,,0.00,Rainwise IP-100,2013-07-27 04:51:00,
2013-07-27 00:56:00,65.5,65.0,30.04,SSW,202,3.0,4.0,100,0.00,,,0.00,Rainwise IP-100,2013-07-27 04:56:00,
2013-07-27 01:01:00,65.8,65.0,30.04,SSW,202,4.0,6.0,100,0.00,,,0.00,Rainwise IP-100,2013-07-27 05:01:00,
2013-07-27 01:06:00,65.9,66.0,30.04,SW,225,3.0,5.0,100,0.00,,,0.00,Rainwise IP-100,2013-07-27 05:06:00,
2013-07-27 01:11:00,65.9,66.0,30.04,SW,225,1.0,7.0,100,0.00,,,0.00,Rainwise IP-100,2013-07-27 05:11:00,
2013-07-27 01:16:00,65.9,66.0,30.04,SW,225,4.0,6.0,100,0.00,,,0.00,Rainwise IP-100,2013-07-27 05:16:00,
2013-07-27 01:21:00,66.0,66.0,30.04,SW,225,5.0,9.0,100,0.00,,,0.00,Rainwise IP-100,2013-07-27 05:21:00,
2013-07-27 01:26:00,66.0,66.0,30.05,SW,225,4.0,6.0,100,0.00,,,0.00,Rainwise IP-100,2013-07-27 05:26:00,
2013-07-27 01:31:00,65.9,66.0,30.04,West,270,0.0,8.0,100,0.00,,,0.00,Rainwise IP-100,2013-07-27 05:31:00,
2013-07-27 01:36:00,65.9,66.0,30.04,WNW,292,3.0,6.0,100,0.00,,,0.00,Rainwise IP-100,2013-07-27 05:36:00,
2013-07-27 01:41:00,66.0,66.0,30.04,SW,225,1.0,7.0,100,0.00,,,0.00,Rainwise IP-100,2013-07-27 05:41:00,
2013-07-27 01:46:00,66.0,66.0,30.04,WSW,247,4.0,7.0,100,0.00,,,0.00,Rainwise IP-100,2013-07-27 05:46:00,
2013-07-27 01:51:00,66.0,66.0,30.04,SW,225,4.0,6.0,100,0.00,,,0.00,Rainwise IP-100,2013-07-27 05:51:00,
2013-07-27 01:56:00,66.1,66.0,30.04,WSW,247,6.0,7.0,100,0.00,,,0.00,Rainwise IP-100,2013-07-27 05:56:00,
2013-07-27 02:01:00,66.1,66.0,30.03,WSW,247,4.0,8.0,100,0.00,,,0.00,Rainwise IP-100,2013-07-27 06:01:00,
2013-07-27 02:06:00,66.1,66.0,30.03,SW,225,1.0,6.0,100,0.00,,,0.00,Rainwise IP-100,2013-07-27 06:06:00,
2013-07-27 02:11:00,66.1,66.0,30.04,WSW,247,3.0,7.0,100,0.00,,,0.00,Rainwise IP-100,2013-07-27 06:11:00,
2013-07-27 02:16:00,66.0,66.0,30.04,WSW,247,4.0,7.0,100,0.00,,,0.00,Rainwise IP-100,2013-07-27 06:16:00,
2013-07-27 02:21:00,66.1,66.0,30.04,WSW,247,4.0,9.0,100,0.00,,,0.00,Rainwise IP-100,2013-07-27 06:21:00,
2013-07-27 02:26:00,66.2,66.0,30.03,WSW,247,5.0,5.0,100,0.00,,,0.00,Rainwise IP-100,2013-07-27 06:26:00,
2013-07-27 02:31:00,66.2,66.0,30.04,WSW,247,3.0,7.0,100,0.00,,,0.00,Rainwise IP-100,2013-07-27 06:31:00,
2013-07-27 02:36:00,66.2,66.0,30.03,West,270,2.0,5.0,100,0.00,,,0.00,Rainwise IP-100,2013-07-27 06:36:00,
2013-07-27 02:41:00,66.2,66.0,30.03,WSW,247,5.0,6.0,100,0.00,,,0.00,Rainwise IP-100,2013-07-27 06:41:00,
2013-07-27 02:46:00,66.2,66.0,30.04,WSW,247,2.0,6.0,100,0.00,,,0.00,Rainwise IP-100,2013-07-27 06:46:00,
2013-07-27 02:51:00,66.2,66.0,30.04,WNW,292,2.0,6.0,100,0.00,,,0.00,Rainwise IP-100,2013-07-27 06:51:00,
2013-07-27 02:56:00,66.2,66.0,30.04,West,270,2.0,6.0,100,0.00,,,0.00,Rainwise IP-100,2013-07-27 06:56:00,
2013-07-27 03:01:00,66.2,66.0,30.03,WSW,247,2.0,8.0,100,0.00,,,0.00,Rainwise IP-100,2013-07-27 07:01:00,
2013-07-27 03:06:00,66.3,66.0,30.03,South,180,4.0,0.0,100,0.00,,,0.00,Rainwise IP-100,2013-07-27 07:06:00,
2013-07-27 03:11:00,66.3,66.0,30.03,SW,225,3.0,5.0,100,0.00,,,0.00,Rainwise IP-100,2013-07-27 07:11:00,
2013-07-27 03:16:00,66.3,66.0,30.03,WSW,247,4.0,8.0,100,0.00,,,0.00,Rainwise IP-100,2013-07-27 07:16:00,
2013-07-27 03:21:00,66.3,66.0,30.03,West,270,4.0,5.0,100,0.00,,,0.00,Rainwise IP-100,2013-07-27 07:21:00,
2013-07-27 03:26:00,66.4,66.0,30.03,SW,225,5.0,6.0,100,0.00,,,0.00,Rainwise IP-100,2013-07-27 07:26:00,
2013-07-27 03:31:00,66.5,66.0,30.03,WSW,247,3.0,5.0,100,0.00,,,0.00,Rainwise IP-100,2013-07-27 07:31:00,
2013-07-27 03:36:00,66.5,66.0,30.03,WSW,247,4.0,6.0,100,0.00,,,0.00,Rainwise IP-100,2013-07-27 07:36:00,
2013-07-27 03:41:00,66.6,66.0,30.03,SW,225,4.0,5.0,100,0.00,,,0.00,Rainwise IP-100,2013-07-27 07:41:00,
2013-07-27 03:46:00,66.8,66.0,30.04,SW,225,0.0,6.0,100,0.00,,,0.00,Rainwise IP-100,2013-07-27 07:46:00,
2013-07-27 03:51:00,66.9,67.0,30.04,SW,225,3.0,5.0,100,0.00,,,0.00,Rainwise IP-100,2013-07-27 07:51:00,
2013-07-27 03:56:00,66.9,67.0,30.03,WNW,292,3.0,6.0,100,0.00,,,0.00,Rainwise IP-100,2013-07-27 07:56:00,
2013-07-27 04:01:00,66.9,67.0,30.03,SW,225,1.0,7.0,100,0.00,,,0.00,Rainwise IP-100,2013-07-27 08:01:00,
2013-07-27 04:06:00,66.9,67.0,30.03,SSE,157,2.0,5.0,100,0.00,,,0.00,Rainwise IP-100,2013-07-27 08:06:00,
2013-07-27 04:11:00,66.9,67.0,30.04,SW,225,0.0,6.0,100,0.00,,,0.00,Rainwise IP-100,2013-07-27 08:11:00,
2013-07-27 04:16:00,66.9,67.0,30.04,SW,225,0.0,5.0,100,0.00,,,0.00,Rainwise IP-100,2013-07-27 08:16:00,
2013-07-27 04:21:00,66.8,66.0,30.04,SW,225,2.0,5.0,100,0.00,,,0.00,Rainwise IP-100,2013-07-27 08:21:00,
2013-07-27 04:26:00,66.7,66.0,30.04,SSW,202,4.0,5.0,100,0.00,,,0.00,Rainwise IP-100,2013-07-27 08:26:00,
2013-07-27 04:31:00,66.7,66.0,30.04,SW,225,4.0,5.0,100,0.00,,,0.00,Rainwise IP-100,2013-07-27 08:31:00,
2013-07-27 04:36:00,66.7,66.0,30.04,SW,225,2.0,5.0,100,0.00,,,0.00,Rainwise IP-100,2013-07-27 08:36:00,
2013-07-27 04:41:00,66.7,66.0,30.05,WSW,247,1.0,5.0,100,0.00,,,0.00,Rainwise IP-100,2013-07-27 08:41:00,
2013-07-27 04:46:00,66.8,66.0,30.04,WSW,247,0.0,4.0,100,0.00,,,0.00,Rainwise IP-100,2013-07-27 08:46:00,
2013-07-27 04:51:00,66.8,66.0,30.05,WSW,247,3.0,6.0,100,0.00,,,0.00,Rainwise IP-100,2013-07-27 08:51:00,
2013-07-27 04:56:00,66.9,67.0,30.04,WSW,247,0.0,5.0,100,0.00,,,0.00,Rainwise IP-100,2013-07-27 08:56:00,
2013-07-27 05:01:00,66.9,67.0,30.04,West,270,0.0,5.0,100,0.00,,,0.00,Rainwise IP-100,2013-07-27 09:01:00,
2013-07-27 05:06:00,66.9,67.0,30.04,WSW,247,5.0,5.0,100,0.00,,,0.00,Rainwise IP-100,2013-07-27 09:06:00,
2013-07-27 05:11:00,66.8,66.0,30.04,SW,225,2.0,5.0,100,0.00,,,0.00,Rainwise IP-100,2013-07-27 09:11:00,
2013-07-27 05:16:00,66.7,66.0,30.05,SW,225,3.0,5.0,100,0.00,,,0.00,Rainwise IP-100,2013-07-27 09:16:00,
2013-07-27 05:21:00,66.7,66.0,30.04,SW,225,3.0,5.0,100,0.00,,,0.00,Rainwise IP-100,2013-07-27 09:21:00,
2013-07-27 05:26:00,66.7,66.0,30.04,WSW,247,1.0,5.0,100,0.00,,,0.00,Rainwise IP-100,2013-07-27 09:26:00,
2013-07-27 05:31:00,66.8,66.0,30.05,WSW,247,4.0,5.0,100,0.00,,,0.00,Rainwise IP-100,2013-07-27 09:31:00,
2013-07-27 05:36:00,66.9,67.0,30.05,SW,225,2.0,6.0,100,0.00,,,0.00,Rainwise IP-100,2013-07-27 09:36:00,
2013-07-27 05:41:00,67.0,67.0,30.05,West,270,1.0,5.0,100,0.00,,,0.00,Rainwise IP-100,2013-07-27 09:41:00,
2013-07-27 05:46:00,67.1,67.0,30.05,WSW,247,2.0,6.0,100,0.00,,,0.00,Rainwise IP-100,2013-07-27 09:46:00,
2013-07-27 05:51:00,67.3,67.0,30.06,SSW,202,0.0,5.0,100,0.00,,,0.00,Rainwise IP-100,2013-07-27 09:51:00,
2013-07-27 05:56:00,67.4,67.0,30.06,SW,225,3.0,6.0,100,0.00,,,0.00,Rainwise IP-100,2013-07-27 09:56:00,
2013-07-27 06:01:00,67.5,67.0,30.06,SSW,202,3.0,4.0,100,0.00,,,0.00,Rainwise IP-100,2013-07-27 10:01:00,
2013-07-27 06:06:00,67.6,67.0,30.06,WSW,247,2.0,5.0,100,0.00,,,0.00,Rainwise IP-100,2013-07-27 10:06:00,
2013-07-27 06:11:00,67.7,67.0,30.06,West,270,4.0,5.0,100,0.00,,,0.00,Rainwise IP-100,2013-07-27 10:11:00,
2013-07-27 06:16:00,67.8,67.0,30.06,SW,225,3.0,4.0,100,0.00,,,0.00,Rainwise IP-100,2013-07-27 10:16:00,
2013-07-27 06:21:00,67.9,68.0,30.06,SSW,202,0.0,6.0,100,0.00,,,0.00,Rainwise IP-100,2013-07-27 10:21:00,
2013-07-27 06:26:00,67.9,68.0,30.06,SSW,202,2.0,6.0,100,0.00,,,0.00,Rainwise IP-100,2013-07-27 10:26:00,
2013-07-27 06:31:00,68.0,68.0,30.06,South,180,3.0,7.0,100,0.00,,,0.00,Rainwise IP-100,2013-07-27 10:31:00,
2013-07-27 06:36:00,68.0,68.0,30.06,SSW,202,3.0,5.0,100,0.00,,,0.00,Rainwise IP-100,2013-07-27 10:36:00,
2013-07-27 06:41:00,68.1,68.0,30.06,WSW,247,2.0,7.0,100,0.00,,,0.00,Rainwise IP-100,2013-07-27 10:41:00,
2013-07-27 06:46:00,68.2,68.0,30.06,SW,225,4.0,6.0,100,0.00,,,0.00,Rainwise IP-100,2013-07-27 10:46:00,
2013-07-27 06:51:00,68.2,68.0,30.06,WSW,247,3.0,7.0,100,0.00,,,0.00,Rainwise IP-100,2013-07-27 10:51:00,
2013-07-27 06:56:00,68.3,68.0,30.06,SW,225,2.0,7.0,100,0.00,,,0.00,Rainwise IP-100,2013-07-27 10:56:00,
2013-07-27 07:01:00,68.4,68.0,30.06,WSW,247,2.0,7.0,100,0.00,,,0.00,Rainwise IP-100,2013-07-27 11:01:00,
2013-07-27 07:06:00,68.5,68.0,30.06,WSW,247,5.0,5.0,100,0.00,,,0.00,Rainwise IP-100,2013-07-27 11:06:00,
2013-07-27 07:11:00,68.6,68.0,30.06,WSW,247,0.0,7.0,100,0.00,,,0.00,Rainwise IP-100,2013-07-27 11:11:00,
2013-07-27 07:16:00,68.8,68.0,30.06,WSW,247,1.0,6.0,100,0.00,,,0.00,Rainwise IP-100,2013-07-27 11:16:00,
2013-07-27 07:21:00,68.9,69.0,30.06,SSW,202,4.0,6.0,100,0.00,,,0.00,Rainwise IP-100,2013-07-27 11:21:00,
2013-07-27 07:26:00,69.1,69.0,30.06,WSW,247,7.0,7.0,100,0.00,,,0.00,Rainwise IP-100,2013-07-27 11:26:00,
2013-07-27 07:31:00,69.3,69.0,30.06,SW,225,4.0,7.0,100,0.00,,,0.00,Rainwise IP-100,2013-07-27 11:31:00,
2013-07-27 07:36:00,69.4,69.0,30.06,West,270,2.0,5.0,100,0.00,,,0.00,Rainwise IP-100,2013-07-27 11:36:00,
2013-07-27 07:41:00,69.5,69.0,30.06,WSW,247,2.0,7.0,100,0.00,,,0.00,Rainwise IP-100,2013-07-27 11:41:00,
2013-07-27 07:46:00,69.6,69.0,30.07,WSW,247,3.0,4.0,100,0.00,,,0.00,Rainwise IP-100,2013-07-27 11:46:00,
2013-07-27 07:51:00,69.7,69.0,30.06,WNW,292,3.0,5.0,100,0.00,,,0.00,Rainwise IP-100,2013-07-27 11:51:00,
2013-07-27 07:56:00,69.8,69.0,30.06,SSW,202,2.0,6.0,100,0.00,,,0.00,Rainwise IP-100,2013-07-27 11:56:00,
2013-07-27 08:01:00,70.0,70.0,30.07,SSW,202,4.0,6.0,100,0.00,,,0.00,Rainwise IP-100,2013-07-27 12:01:00,
2013-07-27 08:06:00,70.0,70.0,30.06,SW,225,2.0,7.0,100,0.00,,,0.00,Rainwise IP-100,2013-07-27 12:06:00,
2013-07-27 08:11:00,69.9,70.0,30.07,SW,225,4.0,8.0,100,0.00,,,0.00,Rainwise IP-100,2013-07-27 12:11:00,
2013-07-27 08:16:00,69.8,69.0,30.07,South,180,2.0,8.0,100,0.00,,,0.00,Rainwise IP-100,2013-07-27 12:16:00,
2013-07-27 08:21:00,69.9,70.0,30.07,WSW,247,3.0,8.0,100,0.00,,,0.00,Rainwise IP-100,2013-07-27 12:21:00,
2013-07-27 08:26:00,70.1,70.0,30.06,WSW,247,5.0,8.0,100,0.00,,,0.00,Rainwise IP-100,2013-07-27 12:26:00,
2013-07-27 08:31:00,70.4,70.0,30.07,WSW,247,4.0,8.0,100,0.00,,,0.00,Rainwise IP-100,2013-07-27 12:31:00,
2013-07-27 08:36:00,70.7,70.0,30.07,West,270,2.0,7.0,100,0.00,,,0.00,Rainwise IP-100,2013-07-27 12:36:00,
2013-07-27 08:41:00,70.9,71.0,30.07,SSW,202,1.0,6.0,100,0.00,,,0.00,Rainwise IP-100,2013-07-27 12:41:00,
2013-07-27 08:46:00,71.3,71.0,30.07,SSW,202,3.0,9.0,100,0.00,,,0.00,Rainwise IP-100,2013-07-27 12:46:00,
2013-07-27 08:51:00,71.6,71.0,30.07,WSW,247,4.0,8.0,99,0.00,,,0.00,Rainwise IP-100,2013-07-27 12:51:00,
2013-07-27 08:56:00,71.7,71.0,30.07,SW,225,4.0,7.0,99,0.00,,,0.00,Rainwise IP-100,2013-07-27 12:56:00,
2013-07-27 09:01:00,71.9,71.0,30.07,SW,225,2.0,8.0,98,0.00,,,0.00,Rainwise IP-100,2013-07-27 13:01:00,
2013-07-27 09:06:00,72.2,71.0,30.07,WSW,247,5.0,9.0,98,0.00,,,0.00,Rainwise IP-100,2013-07-27 13:06:00,
2013-07-27 09:11:00,72.4,71.0,30.06,South,180,4.0,9.0,97,0.00,,,0.00,Rainwise IP-100,2013-07-27 13:11:00,
2013-07-27 09:16:00,72.6,72.0,30.07,SSW,202,4.0,9.0,97,0.00,,,0.00,Rainwise IP-100,2013-07-27 13:16:00,
2013-07-27 09:21:00,72.7,71.0,30.07,SSW,202,6.0,7.0,96,0.00,,,0.00,Rainwise IP-100,2013-07-27 13:21:00,
2013-07-27 09:26:00,73.0,71.0,30.07,SW,225,3.0,9.0,95,0.00,,,0.00,Rainwise IP-100,2013-07-27 13:26:00,
2013-07-27 09:31:00,73.3,72.0,30.07,WSW,247,5.0,8.0,95,0.00,,,0.00,Rainwise IP-100,2013-07-27 13:31:00,
2013-07-27 09:36:00,73.5,72.0,30.07,SSW,202,7.0,7.0,94,0.00,,,0.00,Rainwise IP-100,2013-07-27 13:36:00,
2013-07-27 09:41:00,73.7,71.0,30.07,SSW,202,2.0,0.0,93,0.00,,,0.00,Rainwise IP-100,2013-07-27 13:41:00,
2013-07-27 09:46:00,73.9,71.0,30.07,SSW,202,4.0,9.0,92,0.00,,,0.00,Rainwise IP-100,2013-07-27 13:46:00,
2013-07-27 09:51:00,73.8,71.0,30.08,SSW,202,4.0,7.0,92,0.00,,,0.00,Rainwise IP-100,2013-07-27 13:51:00,
2013-07-27 09:56:00,73.8,71.0,30.07,SSW,202,3.0,0.0,92,0.00,,,0.00,Rainwise IP-100,2013-07-27 13:56:00,
2013-07-27 10:01:00,74.1,71.0,30.08,SSW,202,8.0,0.0,91,0.00,,,0.00,Rainwise IP-100,2013-07-27 14:01:00,
2013-07-27 10:06:00,74.2,71.0,30.07,SSW,202,7.0,7.0,90,0.00,,,0.00,Rainwise IP-100,2013-07-27 14:06:00,
2013-07-27 10:11:00,74.2,71.0,30.07,SSW,202,5.0,0.0,90,0.00,,,0.00,Rainwise IP-100,2013-07-27 14:11:00,
2013-07-27 10:16:00,74.4,71.0,30.08,WSW,247,8.0,9.0,90,0.00,,,0.00,Rainwise IP-100,2013-07-27 14:16:00,
2013-07-27 10:21:00,74.5,71.0,30.07,SSW,202,4.0,4.0,90,0.00,,,0.00,Rainwise IP-100,2013-07-27 14:21:00,
2013-07-27 10:26:00,74.6,71.0,30.07,WSW,247,4.0,9.0,90,0.00,,,0.00,Rainwise IP-100,2013-07-27 14:26:00,
2013-07-27 10:31:00,74.6,71.0,30.08,SSW,202,5.0,9.0,90,0.00,,,0.00,Rainwise IP-100,2013-07-27 14:31:00,
2013-07-27 10:36:00,74.7,71.0,30.07,SSE,157,6.0,0.0,90,0.00,,,0.00,Rainwise IP-100,2013-07-27 14:36:00,
2013-07-27 10:41:00,74.9,71.0,30.08,SSW,202,6.0,8.0,89,0.00,,,0.00,Rainwise IP-100,2013-07-27 14:41:00,
2013-07-27 10:46:00,75.1,71.0,30.08,SSW,202,5.0,5.0,89,0.00,,,0.00,Rainwise IP-100,2013-07-27 14:46:00,
2013-07-27 10:51:00,75.3,71.0,30.08,SSW,202,5.0,9.0,89,0.00,,,0.00,Rainwise IP-100,2013-07-27 14:51:00,
2013-07-27 10:56:00,75.4,71.0,30.08,SSW,202,8.0,8.0,88,0.00,,,0.00,Rainwise IP-100,2013-07-27 14:56:00,
2013-07-27 11:01:00,75.2,71.0,30.08,SW,225,7.0,7.0,88,0.00,,,0.00,Rainwise IP-100,2013-07-27 15:01:00,
2013-07-27 11:06:00,75.1,71.0,30.07,SW,225,5.0,0.0,87,0.00,,,0.00,Rainwise IP-100,2013-07-27 15:06:00,
2013-07-27 11:11:00,75.3,71.0,30.08,South,180,4.0,7.0,88,0.00,,,0.00,Rainwise IP-100,2013-07-27 15:11:00,
2013-07-27 11:16:00,75.5,71.0,30.07,WSW,247,4.0,9.0,88,0.00,,,0.00,Rainwise IP-100,2013-07-27 15:16:00,
2013-07-27 11:21:00,75.6,71.0,30.07,SSW,202,4.0,9.0,88,0.00,,,0.00,Rainwise IP-100,2013-07-27 15:21:00,
2013-07-27 11:26:00,75.6,71.0,30.07,SW,225,8.0,8.0,88,0.00,,,0.00,Rainwise IP-100,2013-07-27 15:26:00,
2013-07-27 11:31:00,75.5,71.0,30.07,SSW,202,2.0,8.0,87,0.00,,,0.00,Rainwise IP-100,2013-07-27 15:31:00,
2013-07-27 11:36:00,75.5,71.0,30.07,SW,225,4.0,0.0,87,0.00,,,0.00,Rainwise IP-100,2013-07-27 15:36:00,
2013-07-27 11:41:00,75.7,71.0,30.08,South,180,5.0,5.0,87,0.00,,,0.00,Rainwise IP-100,2013-07-27 15:41:00,
2013-07-27 11:46:00,75.5,71.0,30.08,WSW,247,5.0,5.0,87,0.00,,,0.00,Rainwise IP-100,2013-07-27 15:46:00,
2013-07-27 11:51:00,75.4,71.0,30.08,SSE,157,6.0,6.0,87,0.00,,,0.00,Rainwise IP-100,2013-07-27 15:51:00,
2013-07-27 11:56:00,75.3,71.0,30.08,South,180,4.0,0.0,87,0.00,,,0.00,Rainwise IP-100,2013-07-27 15:56:00,
2013-07-27 12:01:00,75.4,71.0,30.08,SW,225,6.0,6.0,87,0.00,,,0.00,Rainwise IP-100,2013-07-27 16:01:00,
2013-07-27 12:06:00,75.5,71.0,30.08,SW,225,4.0,9.0,87,0.00,,,0.00,Rainwise IP-100,2013-07-27 16:06:00,
2013-07-27 12:11:00,75.7,71.0,30.08,SSW,202,0.0,1.0,87,0.00,,,0.00,Rainwise IP-100,2013-07-27 16:11:00,
2013-07-27 12:16:00,75.6,71.0,30.07,South,180,9.0,0.0,87,0.00,,,0.00,Rainwise IP-100,2013-07-27 16:16:00,
2013-07-27 12:21:00,75.7,71.0,30.07,SSW,202,0.0,0.0,87,0.00,,,0.00,Rainwise IP-100,2013-07-27 16:21:00,
2013-07-27 12:26:00,75.9,71.0,30.07,SW,225,3.0,0.0,87,0.00,,,0.00,Rainwise IP-100,2013-07-27 16:26:00,
2013-07-27 12:31:00,75.8,71.0,30.07,SSW,202,8.0,8.0,86,0.00,,,0.00,Rainwise IP-100,2013-07-27 16:31:00,
2013-07-27 12:36:00,75.7,71.0,30.07,WSW,247,3.0,3.0,86,0.00,,,0.00,Rainwise IP-100,2013-07-27 16:36:00,
2013-07-27 12:41:00,76.0,71.0,30.07,South,180,7.0,8.0,86,0.00,,,0.00,Rainwise IP-100,2013-07-27 16:41:00,
2013-07-27 12:46:00,76.1,71.0,30.07,WSW,247,7.0,9.0,86,0.00,,,0.00,Rainwise IP-100,2013-07-27 16:46:00,
2013-07-27 12:51:00,76.0,71.0,30.07,SSW,202,5.0,0.0,85,0.00,,,0.00,Rainwise IP-100,2013-07-27 16:51:00,
2013-07-27 12:56:00,76.1,71.0,30.06,South,180,5.0,0.0,85,0.00,,,0.00,Rainwise IP-100,2013-07-27 16:56:00,
2013-07-27 13:01:00,76.0,71.0,30.07,SSW,202,6.0,6.0,85,0.00,,,0.00,Rainwise IP-100,2013-07-27 17:01:00,
2013-07-27 13:06:00,75.9,71.0,30.07,SSW,202,2.0,2.0,85,0.00,,,0.00,Rainwise IP-100,2013-07-27 17:06:00,
2013-07-27 13:11:00,75.9,71.0,30.06,SSW,202,9.0,9.0,85,0.00,,,0.00,Rainwise IP-100,2013-07-27 17:11:00,
2013-07-27 13:16:00,75.8,71.0,30.06,SW,225,7.0,7.0,86,0.00,,,0.00,Rainwise IP-100,2013-07-27 17:16:00,
2013-07-27 13:21:00,75.5,71.0,30.07,South,180,6.0,6.0,86,0.00,,,0.00,Rainwise IP-100,2013-07-27 17:21:00,
2013-07-27 13:26:00,75.5,71.0,30.06,WSW,247,7.0,7.0,87,0.00,,,0.00,Rainwise IP-100,2013-07-27 17:26:00,
2013-07-27 13:31:00,75.7,71.0,30.07,SSW,202,9.0,9.0,86,0.00,,,0.00,Rainwise IP-100,2013-07-27 17:31:00,
2013-07-27 13:36:00,75.7,71.0,30.07,SSE,157,8.0,8.0,86,0.00,,,0.00,Rainwise IP-100,2013-07-27 17:36:00,
2013-07-27 13:41:00,75.6,71.0,30.06,SW,225,8.0,0.0,86,0.00,,,0.00,Rainwise IP-100,2013-07-27 17:41:00,
2013-07-27 13:46:00,75.6,71.0,30.06,South,180,7.0,7.0,86,0.00,,,0.00,Rainwise IP-100,2013-07-27 17:46:00,
2013-07-27 13:51:00,75.7,71.0,30.06,WSW,247,3.0,4.0,86,0.00,,,0.00,Rainwise IP-100,2013-07-27 17:51:00,
2013-07-27 13:56:00,75.7,71.0,30.06,SSW,202,7.0,7.0,86,0.00,,,0.00,Rainwise IP-100,2013-07-27 17:56:00,
2013-07-27 14:01:00,75.7,71.0,30.06,SSE,157,6.0,6.0,86,0.00,,,0.00,Rainwise IP-100,2013-07-27 18:01:00,
2013-07-27 14:06:00,75.8,71.0,30.06,SW,225,1.0,9.0,86,0.00,,,0.00,Rainwise IP-100,2013-07-27 18:06:00,
2013-07-27 14:11:00,76.0,71.0,30.06,WSW,247,5.0,5.0,86,0.00,,,0.00,Rainwise IP-100,2013-07-27 18:11:00,
2013-07-27 14:16:00,76.0,71.0,30.06,SW,225,7.0,7.0,85,0.00,,,0.00,Rainwise IP-100,2013-07-27 18:16:00,
2013-07-27 14:21:00,75.8,71.0,30.06,SSW,202,0.0,4.0,85,0.00,,,0.00,Rainwise IP-100,2013-07-27 18:21:00,
2013-07-27 14:26:00,75.9,71.0,30.06,SW,225,8.0,8.0,85,0.00,,,0.00,Rainwise IP-100,2013-07-27 18:26:00,
2013-07-27 14:31:00,76.0,71.0,30.06,SSW,202,6.0,6.0,85,0.00,,,0.00,Rainwise IP-100,2013-07-27 18:31:00,
2013-07-27 14:36:00,75.9,71.0,30.05,NW,315,6.0,6.0,85,0.00,,,0.00,Rainwise IP-100,2013-07-27 18:36:00,
2013-07-27 14:41:00,76.0,71.0,30.06,SW,225,6.0,6.0,85,0.00,,,0.00,Rainwise IP-100,2013-07-27 18:41:00,
2013-07-27 14:46:00,76.3,71.0,30.06,SSW,202,7.0,7.0,85,0.00,,,0.00,Rainwise IP-100,2013-07-27 18:46:00,
2013-07-27 14:51:00,76.6,71.0,30.06,WSW,247,5.0,5.0,85,0.00,,,0.00,Rainwise IP-100,2013-07-27 18:51:00,
2013-07-27 14:56:00,76.5,71.0,30.06,SSW,202,0.0,3.0,85,0.00,,,0.00,Rainwise IP-100,2013-07-27 18:56:00,
2013-07-27 15:01:00,76.2,71.0,30.06,SSW,202,9.0,9.0,84,0.00,,,0.00,Rainwise IP-100,2013-07-27 19:01:00,
2013-07-27 15:06:00,76.0,71.0,30.06,South,180,6.0,6.0,85,0.00,,,0.00,Rainwise IP-100,2013-07-27 19:06:00,
2013-07-27 15:11:00,76.1,71.0,30.05,South,180,8.0,0.0,86,0.00,,,0.00,Rainwise IP-100,2013-07-27 19:11:00,
2013-07-27 15:16:00,76.4,71.0,30.05,SSW,202,8.0,8.0,85,0.00,,,0.00,Rainwise IP-100,2013-07-27 19:16:00,
2013-07-27 15:21:00,76.6,71.0,30.05,South,180,0.0,2.0,84,0.00,,,0.00,Rainwise IP-100,2013-07-27 19:21:00,
2013-07-27 15:26:00,76.7,71.0,30.05,WSW,247,6.0,6.0,84,0.00,,,0.00,Rainwise IP-100,2013-07-27 19:26:00,
2013-07-27 15:31:00,76.8,71.0,30.05,SSW,202,4.0,4.0,84,0.00,,,0.00,Rainwise IP-100,2013-07-27 19:31:00,
2013-07-27 15:36:00,77.1,71.0,30.05,SSE,157,4.0,4.0,83,0.00,,,0.00,Rainwise IP-100,2013-07-27 19:36:00,
2013-07-27 15:41:00,77.4,71.0,30.05,SSE,157,2.0,2.0,82,0.00,,,0.00,Rainwise IP-100,2013-07-27 19:41:00,
2013-07-27 15:46:00,77.2,71.0,30.05,SSW,202,8.0,8.0,82,0.00,,,0.00,Rainwise IP-100,2013-07-27 19:46:00,
2013-07-27 15:51:00,76.6,71.0,30.05,SSW,202,6.0,6.0,83,0.00,,,0.00,Rainwise IP-100,2013-07-27 19:51:00,
2013-07-27 15:56:00,75.9,70.0,30.05,SSW,202,5.0,5.0,83,0.00,,,0.00,Rainwise IP-100,2013-07-27 19:56:00,
2013-07-27 16:01:00,75.5,70.0,30.05,WSW,247,6.0,8.0,84,0.00,,,0.00,Rainwise IP-100,2013-07-27 20:01:00,
2013-07-27 16:06:00,75.3,70.0,30.05,SW,225,9.0,9.0,85,0.00,,,0.00,Rainwise IP-100,2013-07-27 20:06:00,
2013-07-27 16:11:00,75.2,71.0,30.05,South,180,4.0,0.0,86,0.00,,,0.00,Rainwise IP-100,2013-07-27 20:11:00,
2013-07-27 16:16:00,75.1,71.0,30.05,SSW,202,6.0,6.0,86,0.00,,,0.00,Rainwise IP-100,2013-07-27 20:16:00,
2013-07-27 16:21:00,75.1,71.0,30.05,SW,225,0.0,0.0,87,0.00,,,0.00,Rainwise IP-100,2013-07-27 20:21:00,
2013-07-27 16:26:00,75.1,71.0,30.04,SW,225,6.0,6.0,87,0.00,,,0.00,Rainwise IP-100,2013-07-27 20:26:00,
2013-07-27 16:31:00,75.2,71.0,30.05,SSW,202,9.0,9.0,87,0.00,,,0.00,Rainwise IP-100,2013-07-27 20:31:00,
2013-07-27 16:36:00,75.3,71.0,30.04,South,180,9.0,0.0,87,0.00,,,0.00,Rainwise IP-100,2013-07-27 20:36:00,
2013-07-27 16:41:00,75.4,71.0,30.05,South,180,0.0,3.0,87,0.00,,,0.00,Rainwise IP-100,2013-07-27 20:41:00,
2013-07-27 16:46:00,75.4,71.0,30.05,South,180,7.0,7.0,87,0.00,,,0.00,Rainwise IP-100,2013-07-27 20:46:00,
2013-07-27 16:51:00,75.4,71.0,30.04,SSW,202,5.0,0.0,87,0.00,,,0.00,Rainwise IP-100,2013-07-27 20:51:00,
2013-07-27 16:56:00,75.6,71.0,30.04,SSW,202,7.0,0.0,88,0.00,,,0.00,Rainwise IP-100,2013-07-27 20:56:00,
2013-07-27 17:01:00,75.7,71.0,30.04,South,180,7.0,0.0,87,0.00,,,0.00,Rainwise IP-100,2013-07-27 21:01:00,
2013-07-27 17:06:00,75.5,71.0,30.05,South,180,7.0,9.0,87,0.00,,,0.00,Rainwise IP-100,2013-07-27 21:06:00,
2013-07-27 17:11:00,75.1,71.0,30.05,SSE,157,5.0,9.0,88,0.00,,,0.00,Rainwise IP-100,2013-07-27 21:11:00,
2013-07-27 17:16:00,74.8,71.0,30.04,SW,225,7.0,0.0,89,0.00,,,0.00,Rainwise IP-100,2013-07-27 21:16:00,
2013-07-27 17:21:00,74.5,71.0,30.04,SSW,202,3.0,3.0,90,0.00,,,0.00,Rainwise IP-100,2013-07-27 21:21:00,
2013-07-27 17:26:00,74.2,71.0,30.04,SSW,202,5.0,0.0,90,0.00,,,0.00,Rainwise IP-100,2013-07-27 21:26:00,
2013-07-27 17:31:00,74.0,71.0,30.04,SSE,157,7.0,8.0,90,0.00,,,0.00,Rainwise IP-100,2013-07-27 21:31:00,
2013-07-27 17:36:00,74.1,71.0,30.03,South,180,5.0,9.0,91,0.00,,,0.00,Rainwise IP-100,2013-07-27 21:36:00,
2013-07-27 17:41:00,74.5,72.0,30.03,SSW,202,8.0,9.0,91,0.00,,,0.00,Rainwise IP-100,2013-07-27 21:41:00,
2013-07-27 17:46:00,74.7,71.0,30.03,South,180,7.0,7.0,90,0.00,,,0.00,Rainwise IP-100,2013-07-27 21:46:00,
2013-07-27 17:51:00,74.3,71.0,30.03,SSW,202,6.0,0.0,90,0.00,,,0.00,Rainwise IP-100,2013-07-27 21:51:00,
2013-07-27 17:56:00,73.9,71.0,30.03,South,180,5.0,7.0,90,0.00,,,0.00,Rainwise IP-100,2013-07-27 21:56:00,
2013-07-27 18:01:00,73.5,71.0,30.03,SSW,202,4.0,7.0,91,0.00,,,0.00,Rainwise IP-100,2013-07-27 22:01:00,
2013-07-27 18:06:00,73.2,71.0,30.03,SSE,157,2.0,0.0,92,0.00,,,0.00,Rainwise IP-100,2013-07-27 22:06:00,
2013-07-27 18:11:00,73.1,70.0,30.03,SW,225,7.0,9.0,92,0.00,,,0.00,Rainwise IP-100,2013-07-27 22:11:00,
2013-07-27 18:16:00,73.0,70.0,30.04,South,180,7.0,8.0,92,0.00,,,0.00,Rainwise IP-100,2013-07-27 22:16:00,
2013-07-27 18:21:00,73.0,71.0,30.03,South,180,5.0,7.0,93,0.00,,,0.00,Rainwise IP-100,2013-07-27 22:21:00,
2013-07-27 18:26:00,72.9,71.0,30.03,SSW,202,2.0,7.0,93,0.00,,,0.00,Rainwise IP-100,2013-07-27 22:26:00,
2013-07-27 18:31:00,72.8,70.0,30.04,SSW,202,3.0,8.0,93,0.00,,,0.00,Rainwise IP-100,2013-07-27 22:31:00,
2013-07-27 18:36:00,72.7,70.0,30.03,South,180,6.0,6.0,93,0.00,,,0.00,Rainwise IP-100,2013-07-27 22:36:00,
2013-07-27 18:41:00,72.5,70.0,30.03,SSW,202,7.0,0.0,93,0.00,,,0.00,Rainwise IP-100,2013-07-27 22:41:00,
2013-07-27 18:46:00,72.2,70.0,30.03,SSW,202,8.0,9.0,93,0.00,,,0.00,Rainwise IP-100,2013-07-27 22:46:00,
2013-07-27 18:51:00,71.8,69.0,30.04,South,180,3.0,7.0,93,0.00,,,0.00,Rainwise IP-100,2013-07-27 22:51:00,
2013-07-27 18:56:00,71.7,69.0,30.03,SW,225,3.0,8.0,94,0.00,,,0.00,Rainwise IP-100,2013-07-27 22:56:00,
2013-07-27 19:01:00,71.7,69.0,30.04,South,180,5.0,7.0,94,0.00,,,0.00,Rainwise IP-100,2013-07-27 23:01:00,
2013-07-27 19:06:00,71.8,69.0,30.04,South,180,5.0,6.0,94,0.00,,,0.00,Rainwise IP-100,2013-07-27 23:06:00,
2013-07-27 19:11:00,71.8,69.0,30.04,SSW,202,5.0,8.0,94,0.00,,,0.00,Rainwise IP-100,2013-07-27 23:11:00,
2013-07-27 19:16:00,71.7,69.0,30.03,SSE,157,1.0,6.0,94,0.00,,,0.00,Rainwise IP-100,2013-07-27 23:16:00,
2013-07-27 19:21:00,71.5,69.0,30.04,SSE,157,4.0,4.0,94,0.00,,,0.00,Rainwise IP-100,2013-07-27 23:21:00,
2013-07-27 19:26:00,71.1,69.0,30.04,SSW,202,2.0,7.0,94,0.00,,,0.00,Rainwise IP-100,2013-07-27 23:26:00,
2013-07-27 19:31:00,70.8,69.0,30.04,SSW,202,2.0,4.0,95,0.00,,,0.00,Rainwise IP-100,2013-07-27 23:31:00,
2013-07-27 19:36:00,70.6,69.0,30.04,South,180,2.0,5.0,95,0.00,,,0.00,Rainwise IP-100,2013-07-27 23:36:00,
2013-07-27 19:41:00,70.4,69.0,30.04,South,180,4.0,5.0,96,0.00,,,0.00,Rainwise IP-100,2013-07-27 23:41:00,
2013-07-27 19:46:00,70.0,69.0,30.04,South,180,3.0,5.0,96,0.00,,,0.00,Rainwise IP-100,2013-07-27 23:46:00,
2013-07-27 19:51:00,69.8,68.0,30.04,SSW,202,2.0,4.0,96,0.00,,,0.00,Rainwise IP-100,2013-07-27 23:51:00,
2013-07-27 19:56:00,69.6,69.0,30.04,South,180,2.0,4.0,97,0.00,,,0.00,Rainwise IP-100,2013-07-27 23:56:00,
2013-07-27 20:01:00,69.3,68.0,30.04,SSW,202,3.0,4.0,97,0.00,,,0.00,Rainwise IP-100,2013-07-28 00:01:00,
2013-07-27 20:06:00,69.1,68.0,30.04,SW,225,3.0,4.0,98,0.00,,,0.00,Rainwise IP-100,2013-07-28 00:06:00,
2013-07-27 20:11:00,68.9,68.0,30.04,SSE,157,4.0,4.0,98,0.00,,,0.00,Rainwise IP-100,2013-07-28 00:11:00,
2013-07-27 20:16:00,68.7,68.0,30.04,South,180,2.0,6.0,98,0.00,,,0.00,Rainwise IP-100,2013-07-28 00:16:00,
2013-07-27 20:21:00,68.6,68.0,30.05,SSE,157,2.0,4.0,98,0.00,,,0.00,Rainwise IP-100,2013-07-28 00:21:00,
2013-07-27 20:26:00,68.4,68.0,30.05,South,180,1.0,4.0,98,0.00,,,0.00,Rainwise IP-100,2013-07-28 00:26:00,
2013-07-27 20:31:00,68.2,67.0,30.05,SSE,157,4.0,5.0,99,0.00,,,0.00,Rainwise IP-100,2013-07-28 00:31:00,
2013-07-27 20:36:00,68.1,67.0,30.04,South,180,2.0,6.0,99,0.00,,,0.00,Rainwise IP-100,2013-07-28 00:36:00,
2013-07-27 20:41:00,68.1,67.0,30.04,SSE,157,4.0,4.0,99,0.00,,,0.00,Rainwise IP-100,2013-07-28 00:41:00,
2013-07-27 20:46:00,68.1,67.0,30.05,SSE,157,0.0,3.0,99,0.00,,,0.00,Rainwise IP-100,2013-07-28 00:46:00,
2013-07-27 20:51:00,68.1,67.0,30.05,SSE,157,2.0,3.0,99,0.00,,,0.00,Rainwise IP-100,2013-07-28 00:51:00,
2013-07-27 20:56:00,67.9,67.0,30.05,SSE,157,0.0,3.0,99,0.00,,,0.00,Rainwise IP-100,2013-07-28 00:56:00,
2013-07-27 21:01:00,67.9,67.0,30.04,SSE,157,0.0,1.0,99,0.00,,,0.00,Rainwise IP-100,2013-07-28 01:01:00,
2013-07-27 21:06:00,67.8,67.0,30.04,SSE,157,0.0,0.0,99,0.00,,,0.00,Rainwise IP-100,2013-07-28 01:06:00,
2013-07-27 21:11:00,67.5,67.0,30.04,SSE,157,0.0,0.0,100,0.00,,,0.00,Rainwise IP-100,2013-07-28 01:11:00,
2013-07-27 21:16:00,67.4,67.0,30.04,SSE,157,0.0,0.0,100,0.00,,,0.00,Rainwise IP-100,2013-07-28 01:16:00,
2013-07-27 21:21:00,67.5,67.0,30.04,SSE,157,0.0,0.0,100,0.00,,,0.00,Rainwise IP-100,2013-07-28 01:21:00,
2013-07-27 21:26:00,67.5,67.0,30.04,SSE,157,0.0,0.0,100,0.00,,,0.00,Rainwise IP-100,2013-07-28 01:26:00,
2013-07-27 21:31:00,67.7,67.0,30.04,SSE,157,0.0,2.0,100,0.00,,,0.00,Rainwise IP-100,2013-07-28 01:31:00,
2013-07-27 21:36:00,67.8,67.0,30.04,SSE,157,1.0,3.0,100,0.00,,,0.00,Rainwise IP-100,2013-07-28 01:36:00,
2013-07-27 21:41:00,67.8,67.0,30.04,SSE,157,0.0,3.0,100,0.00,,,0.00,Rainwise IP-100,2013-07-28 01:41:00,
2013-07-27 21:46:00,67.9,68.0,30.03,SSE,157,0.0,2.0,100,0.00,,,0.00,Rainwise IP-100,2013-07-28 01:46:00,
2013-07-27 21:51:00,67.9,68.0,30.03,SSE,157,0.0,4.0,100,0.00,,,0.00,Rainwise IP-100,2013-07-28 01:51:00,
2013-07-27 21:56:00,67.9,68.0,30.03,SSE,157,1.0,2.0,100,0.00,,,0.00,Rainwise IP-100,2013-07-28 01:56:00,
2013-07-27 22:01:00,68.0,68.0,30.03,SSE,157,1.0,2.0,100,0.00,,,0.00,Rainwise IP-100,2013-07-28 02:01:00,
2013-07-27 22:06:00,68.3,68.0,30.03,SSE,157,0.0,1.0,100,0.00,,,0.00,Rainwise IP-100,2013-07-28 02:06:00,
2013-07-27 22:11:00,68.5,68.0,30.03,SSE,157,0.0,0.0,100,0.00,,,0.00,Rainwise IP-100,2013-07-28 02:11:00,
2013-07-27 22:16:00,68.6,68.0,30.03,SSW,202,0.0,1.0,100,0.00,,,0.00,Rainwise IP-100,2013-07-28 02:16:00,
2013-07-27 22:21:00,68.7,68.0,30.03,SSW,202,0.0,0.0,100,0.00,,,0.00,Rainwise IP-100,2013-07-28 02:21:00,
2013-07-27 22:26:00,68.8,68.0,30.02,SSE,157,0.0,2.0,100,0.00,,,0.00,Rainwise IP-100,2013-07-28 02:26:00,
2013-07-27 22:31:00,68.9,69.0,30.02,SSE,157,1.0,1.0,100,0.00,,,0.00,Rainwise IP-100,2013-07-28 02:31:00,
2013-07-27 22:36:00,69.0,69.0,30.02,SSE,157,0.0,3.0,100,0.00,,,0.00,Rainwise IP-100,2013-07-28 02:36:00,
2013-07-27 22:41:00,69.1,69.0,30.02,SSE,157,0.0,0.0,100,0.00,,,0.00,Rainwise IP-100,2013-07-28 02:41:00,
2013-07-27 22:46:00,69.2,69.0,30.02,SSE,157,2.0,2.0,100,0.00,,,0.00,Rainwise IP-100,2013-07-28 02:46:00,
2013-07-27 22:51:00,69.2,69.0,30.02,SSE,157,0.0,2.0,100,0.00,,,0.00,Rainwise IP-100,2013-07-28 02:51:00,
2013-07-27 22:56:00,69.3,69.0,30.02,SSE,157,1.0,3.0,100,0.00,,,0.00,Rainwise IP-100,2013-07-28 02:56:00,
2013-07-27 23:01:00,69.4,69.0,30.02,SSE,157,0.0,1.0,100,0.00,,,0.00,Rainwise IP-100,2013-07-28 03:01:00,
2013-07-27 23:06:00,69.5,69.0,30.02,SSE,157,0.0,1.0,100,0.00,,,0.00,Rainwise IP-100,2013-07-28 03:06:00,
2013-07-27 23:11:00,69.6,69.0,30.02,SSE,157,0.0,0.0,100,0.00,,,0.00,Rainwise IP-100,2013-07-28 03:11:00,
2013-07-27 23:16:00,69.6,69.0,30.02,NNE,22,0.0,1.0,100,0.00,,,0.00,Rainwise IP-100,2013-07-28 03:16:00,
2013-07-27 23:21:00,69.6,69.0,30.01,NNE,22,1.0,2.0,100,0.00,,,0.00,Rainwise IP-100,2013-07-28 03:21:00,
2013-07-27 23:26:00,69.7,69.0,30.02,NNE,22,0.0,1.0,100,0.00,,,0.00,Rainwise IP-100,2013-07-28 03:26:00,
2013-07-27 23:31:00,69.6,69.0,30.02,NNE,22,2.0,2.0,100,0.00,,,0.00,Rainwise IP-100,2013-07-28 03:31:00,
2013-07-27 23:36:00,69.6,69.0,30.01,NNW,337,2.0,4.0,100,0.00,,,0.00,Rainwise IP-100,2013-07-28 03:36:00,
2013-07-27 23:41:00,69.6,69.0,30.01,NNW,337,0.0,2.0,100,0.00,,,0.00,Rainwise IP-100,2013-07-28 03:41:00,
2013-07-27 23:46:00,69.6,69.0,30.01,NNW,337,0.0,0.0,100,0.00,,,0.00,Rainwise IP-100,2013-07-28 03:46:00,
2013-07-27 23:51:00,69.5,69.0,30.01,NNW,337,0.0,0.0,100,0.00,,,0.00,Rainwise IP-100,2013-07-28 03:51:00,
2013-07-27 23:56:00,69.5,69.0,30.01,NNW,337,0.0,0.0,100,0.00,,,0.00,Rainwise IP-100,2013-07-28 03:56:00,